DLH47G ESSV-EPGD

Flight info

Callsign DLH47G
Flight time 0h 42m
Altitude 30000
Route KINTI3C KINTI DCT PENOR/N0380F290 DCT MOTAD DCT DOMAG DCT OGDAV OGDAV5T
Aircraft A20N/M-SDE2E3FGHIRWXY/LB1

Departure

Time 2026-04-26 17:27
Airport Visby Airport (ESSV)

Arrival

Time 2026-04-26 18:09
Airport Gdańsk Lech Wałęsa Airport (EPGD)
Time Latitude Longitude Altitude Speed Heading
2026-04-26 17:06 57.66015 18.33921 145 ft 0 kts 333°
2026-04-26 17:19 57.66017 18.33921 145 ft 1 kts 346°
2026-04-26 17:20 57.66020 18.33928 145 ft 1 kts 31°
2026-04-26 17:20 57.66024 18.33943 145 ft 5 kts 57°
2026-04-26 17:20 57.66023 18.34086 144 ft 9 kts 89°
2026-04-26 17:20 57.66070 18.34147 144 ft 11 kts 18°
2026-04-26 17:21 57.66123 18.34184 143 ft 0 kts 21°
2026-04-26 17:21 57.66125 18.34186 143 ft 2 kts 22°
2026-04-26 17:21 57.66130 18.34190 143 ft 0 kts 22°
2026-04-26 17:22 57.66108 18.34171 144 ft 0 kts
2026-04-26 17:22 57.66112 18.34161 144 ft 2 kts 319°
2026-04-26 17:22 57.66118 18.34127 144 ft 5 kts 291°
2026-04-26 17:22 57.66108 18.34096 144 ft 3 kts 214°
2026-04-26 17:23 57.66084 18.34083 144 ft 5 kts 197°
2026-04-26 17:23 57.66037 18.34054 144 ft 9 kts 198°
2026-04-26 17:23 57.66002 18.34129 144 ft 9 kts 98°
2026-04-26 17:23 57.65983 18.34244 147 ft 9 kts 109°
2026-04-26 17:24 57.65974 18.34369 148 ft 11 kts 70°
2026-04-26 17:24 57.66060 18.34463 148 ft 18 kts 20°
2026-04-26 17:24 57.66194 18.34548 149 ft 24 kts 19°
2026-04-26 17:24 57.66372 18.34673 147 ft 30 kts 21°
2026-04-26 17:25 57.66575 18.34822 143 ft 33 kts 22°
2026-04-26 17:25 57.66790 18.34979 143 ft 33 kts 20°
2026-04-26 17:25 57.66973 18.35093 153 ft 26 kts 11°
2026-04-26 17:25 57.67030 18.35137 150 ft 1 kts 105°
2026-04-26 17:26 57.67014 18.35138 150 ft 5 kts 185°
2026-04-26 17:26 57.67005 18.35133 150 ft 0 kts 198°
2026-04-26 17:26 57.66995 18.35127 150 ft 6 kts 199°
2026-04-26 17:27 57.66703 18.34908 143 ft 84 kts 201°
2026-04-26 17:27 57.65947 18.34370 152 ft 145 kts 202°
2026-04-26 17:27 57.64974 18.33751 701 ft 154 kts 198°
2026-04-26 17:27 57.63848 18.33487 1293 ft 167 kts 188°
2026-04-26 17:28 57.62675 18.33346 1990 ft 172 kts 189°
2026-04-26 17:28 57.61430 18.33117 2522 ft 189 kts 192°
2026-04-26 17:28 57.60064 18.32755 3056 ft 208 kts 193°
2026-04-26 17:28 57.58583 18.32236 3596 ft 224 kts 204°
2026-04-26 17:29 57.57349 18.30494 4076 ft 231 kts 238°
2026-04-26 17:29 57.57023 18.29675 4269 ft 235 kts 240°
2026-04-26 17:29 57.55496 18.25341 5470 ft 254 kts 243°
2026-04-26 17:29 57.54535 18.22497 6294 ft 261 kts 243°
2026-04-26 17:30 57.53563 18.19628 7295 ft 264 kts 243°
2026-04-26 17:30 57.52575 18.16710 8188 ft 269 kts 242°
2026-04-26 17:30 57.51563 18.13719 8401 ft 272 kts 242°
2026-04-26 17:30 57.50556 18.10755 8522 ft 272 kts 242°
2026-04-26 17:31 57.49544 18.07774 8654 ft 274 kts 242°
2026-04-26 17:31 57.48520 18.04756 9205 ft 277 kts 242°
2026-04-26 17:31 57.47491 18.01727 10249 ft 277 kts 242°
2026-04-26 17:31 57.46436 17.98618 10763 ft 296 kts 243°
2026-04-26 17:32 57.45300 17.95249 11055 ft 319 kts 243°
2026-04-26 17:32 57.43966 17.91809 11555 ft 338 kts 232°
2026-04-26 17:32 57.42123 17.88965 12293 ft 353 kts 217°
2026-04-26 17:32 57.39871 17.86920 12994 ft 368 kts 206°
2026-04-26 17:33 57.37394 17.85462 13690 ft 379 kts 200°
2026-04-26 17:33 57.34799 17.84293 14338 ft 387 kts 198°
2026-04-26 17:33 57.32154 17.83228 15058 ft 391 kts 197°
2026-04-26 17:34 57.26773 17.81077 16429 ft 400 kts 198°
2026-04-26 17:34 57.24038 17.79958 17092 ft 405 kts 198°
2026-04-26 17:34 57.21278 17.78818 17730 ft 409 kts 199°
2026-04-26 17:34 57.18467 17.77652 18299 ft 417 kts 199°
2026-04-26 17:35 57.15626 17.76474 18902 ft 420 kts 199°
2026-04-26 17:35 57.13734 17.75692 19299 ft 423 kts 199°
2026-04-26 17:35 57.10849 17.74500 19867 ft 427 kts 199°
2026-04-26 17:35 57.07936 17.73298 20448 ft 431 kts 200°
2026-04-26 17:36 57.04041 17.71693 21200 ft 436 kts 200°
2026-04-26 17:36 57.01066 17.70470 21761 ft 440 kts 200°
2026-04-26 17:36 56.99044 17.69640 22138 ft 443 kts 200°
2026-04-26 17:36 56.96023 17.68402 22688 ft 447 kts 200°
2026-04-26 17:37 56.92975 17.67155 23202 ft 450 kts 200°
2026-04-26 17:37 56.89905 17.65902 23747 ft 454 kts 200°
2026-04-26 17:37 56.86813 17.64640 24221 ft 457 kts 200°
2026-04-26 17:38 56.80621 17.62122 25185 ft 461 kts 200°
2026-04-26 17:38 56.77478 17.60846 25651 ft 464 kts 200°
2026-04-26 17:38 56.74320 17.59565 26105 ft 466 kts 200°
2026-04-26 17:38 56.71145 17.58279 26549 ft 469 kts 200°
2026-04-26 17:39 56.67958 17.56991 26949 ft 471 kts 200°
2026-04-26 17:39 56.64757 17.55701 27470 ft 471 kts 200°
2026-04-26 17:39 56.61506 17.54392 27862 ft 474 kts 200°
2026-04-26 17:39 56.58283 17.53093 28263 ft 476 kts 200°
2026-04-26 17:40 56.55079 17.51803 28655 ft 478 kts 200°
2026-04-26 17:40 56.52877 17.50920 28915 ft 480 kts 199°
2026-04-26 17:40 56.48550 17.49188 29396 ft 483 kts 199°
2026-04-26 17:40 56.45268 17.47879 29753 ft 485 kts 199°
2026-04-26 17:41 56.41963 17.46564 30047 ft 487 kts 199°
2026-04-26 17:41 56.38665 17.45256 30108 ft 483 kts 199°
2026-04-26 17:41 56.32091 17.42655 30175 ft 484 kts 199°
2026-04-26 17:42 56.25514 17.40058 30187 ft 484 kts 199°
2026-04-26 17:42 56.18907 17.37456 30186 ft 488 kts 199°
2026-04-26 17:43 56.12284 17.34863 30176 ft 483 kts 199°
2026-04-26 17:43 56.05716 17.32297 30176 ft 484 kts 199°
2026-04-26 17:44 55.99130 17.29731 30184 ft 484 kts 199°
2026-04-26 17:44 55.92548 17.27177 30191 ft 484 kts 199°
2026-04-26 17:45 55.85982 17.24638 30186 ft 481 kts 199°
2026-04-26 17:45 55.79439 17.22115 30193 ft 481 kts 199°
2026-04-26 17:46 55.72936 17.19616 30201 ft 481 kts 199°
2026-04-26 17:46 55.66299 17.17386 30202 ft 489 kts 189°
2026-04-26 17:47 55.62866 17.17556 30162 ft 498 kts 177°
2026-04-26 17:47 55.60611 17.18334 30207 ft 501 kts 169°
2026-04-26 17:47 55.56306 17.21282 29880 ft 502 kts 156°
2026-04-26 17:47 55.53197 17.24096 29305 ft 501 kts 155°
2026-04-26 17:48 55.50117 17.26906 28683 ft 497 kts 155°
2026-04-26 17:48 55.47031 17.29599 28053 ft 493 kts 156°
2026-04-26 17:48 55.43949 17.32176 27588 ft 485 kts 158°
2026-04-26 17:48 55.40899 17.34659 27476 ft 486 kts 158°
2026-04-26 17:49 55.37802 17.37144 27378 ft 491 kts 158°
2026-04-26 17:49 55.34697 17.39622 27269 ft 489 kts 158°
2026-04-26 17:49 55.31584 17.42102 27199 ft 493 kts 158°
2026-04-26 17:49 55.28471 17.44580 27219 ft 491 kts 158°
2026-04-26 17:50 55.25363 17.47050 27226 ft 491 kts 158°
2026-04-26 17:50 55.22254 17.49517 27216 ft 491 kts 158°
2026-04-26 17:50 55.19139 17.51976 27216 ft 490 kts 159°
2026-04-26 17:50 55.16033 17.54376 26949 ft 487 kts 159°
2026-04-26 17:51 55.12937 17.56742 26457 ft 485 kts 159°
2026-04-26 17:51 55.09845 17.59100 25862 ft 484 kts 159°
2026-04-26 17:51 55.06770 17.61445 25269 ft 481 kts 159°
2026-04-26 17:51 55.03709 17.63780 24692 ft 478 kts 159°
2026-04-26 17:52 55.00672 17.66108 24090 ft 476 kts 157°
2026-04-26 17:52 54.97796 17.68940 23489 ft 475 kts 146°
2026-04-26 17:52 54.95234 17.72542 22866 ft 472 kts 135°
2026-04-26 17:52 54.92967 17.76628 22227 ft 468 kts 131°
2026-04-26 17:53 54.90731 17.80724 21601 ft 466 kts 131°
2026-04-26 17:53 54.88501 17.84790 20984 ft 463 kts 131°
2026-04-26 17:53 54.86281 17.88819 20378 ft 460 kts 131°
2026-04-26 17:54 54.81883 17.96761 19358 ft 447 kts 131°
2026-04-26 17:54 54.79690 18.00422 19170 ft 427 kts 139°
2026-04-26 17:54 54.77391 18.03475 18982 ft 408 kts 142°
2026-04-26 17:54 54.75162 18.06373 18736 ft 393 kts 142°
2026-04-26 17:55 54.72999 18.09193 18502 ft 389 kts 142°
2026-04-26 17:55 54.70827 18.12025 18267 ft 392 kts 142°
2026-04-26 17:55 54.68640 18.14872 17786 ft 393 kts 142°
2026-04-26 17:55 54.66603 18.17987 17236 ft 390 kts 129°
2026-04-26 17:56 54.64792 18.21471 16688 ft 391 kts 129°
2026-04-26 17:56 54.61191 18.28387 15601 ft 381 kts 129°
2026-04-26 17:57 54.57703 18.35046 14571 ft 368 kts 129°
2026-04-26 17:57 54.55998 18.38293 14060 ft 362 kts 129°
2026-04-26 17:57 54.54320 18.41486 13491 ft 357 kts 130°
2026-04-26 17:57 54.52665 18.44629 12925 ft 351 kts 130°
2026-04-26 17:58 54.47859 18.53738 11435 ft 331 kts 130°
2026-04-26 17:59 54.44849 18.59422 10672 ft 312 kts 130°
2026-04-26 17:59 54.43414 18.62138 10305 ft 303 kts 129°
2026-04-26 17:59 54.42240 18.65046 9895 ft 291 kts 114°
2026-04-26 17:59 54.41436 18.68174 9483 ft 282 kts 109°
2026-04-26 18:00 54.40686 18.71235 9068 ft 275 kts 109°
2026-04-26 18:00 54.39943 18.74227 8634 ft 270 kts 109°
2026-04-26 18:00 54.39210 18.77166 8179 ft 266 kts 109°
2026-04-26 18:00 54.38484 18.80065 7741 ft 263 kts 109°
2026-04-26 18:01 54.37767 18.82928 7298 ft 260 kts 109°
2026-04-26 18:01 54.37058 18.85754 6863 ft 257 kts 109°
2026-04-26 18:01 54.36356 18.88551 6414 ft 254 kts 109°
2026-04-26 18:01 54.35660 18.91322 5958 ft 252 kts 110°
2026-04-26 18:02 54.34743 18.93856 5512 ft 252 kts 136°
2026-04-26 18:02 54.33790 18.94974 5320 ft 254 kts 158°
2026-04-26 18:02 54.31533 18.95333 4938 ft 237 kts 201°
2026-04-26 18:02 54.30176 18.93978 4728 ft 225 kts 231°
2026-04-26 18:03 54.29354 18.91784 4517 ft 214 kts 256°
2026-04-26 18:03 54.29027 18.89327 4301 ft 214 kts 263°
2026-04-26 18:03 54.28713 18.86829 4091 ft 214 kts 262°
2026-04-26 18:03 54.28561 18.84348 4007 ft 208 kts 279°
2026-04-26 18:04 54.28955 18.82020 4003 ft 197 kts 297°
2026-04-26 18:04 54.29493 18.79967 4000 ft 181 kts 298°
2026-04-26 18:04 54.29984 18.78089 4009 ft 168 kts 296°
2026-04-26 18:05 54.30867 18.74530 3808 ft 166 kts 296°
2026-04-26 18:05 54.31312 18.72730 3575 ft 161 kts 296°
2026-04-26 18:05 54.31745 18.70981 3358 ft 159 kts 296°
2026-04-26 18:05 54.32175 18.69253 3138 ft 157 kts 295°
2026-04-26 18:06 54.32595 18.67529 2901 ft 155 kts 295°
2026-04-26 18:06 54.33016 18.65847 2689 ft 151 kts 294°
2026-04-26 18:06 54.33415 18.64224 2488 ft 145 kts 295°
2026-04-26 18:06 54.33810 18.62631 2309 ft 144 kts 293°
2026-04-26 18:07 54.34194 18.61075 2093 ft 138 kts 293°
2026-04-26 18:07 54.34549 18.59629 1916 ft 125 kts 294°
2026-04-26 18:07 54.34872 18.58317 1755 ft 115 kts 292°
2026-04-26 18:07 54.35079 18.57471 1633 ft 117 kts 293°
2026-04-26 18:08 54.35508 18.55745 1405 ft 118 kts 292°
2026-04-26 18:08 54.35827 18.54442 1230 ft 121 kts 292°
2026-04-26 18:08 54.36155 18.53123 1061 ft 120 kts 292°
2026-04-26 18:08 54.36471 18.51806 879 ft 121 kts 291°
2026-04-26 18:09 54.36802 18.50492 692 ft 118 kts 293°
2026-04-26 18:09 54.37125 18.49178 540 ft 121 kts 290°
2026-04-26 18:09 54.37415 18.47959 461 ft 77 kts 293°
2026-04-26 18:09 54.37565 18.47421 460 ft 41 kts 289°
2026-04-26 18:10 54.37670 18.47004 453 ft 36 kts 302°
2026-04-26 18:10 54.37822 18.46736 450 ft 25 kts 323°
2026-04-26 18:10 54.37865 18.46683 451 ft 0 kts 327°
2026-04-26 18:11 54.37866 18.46682 451 ft 1 kts 327°
2026-04-26 18:11 54.37874 18.46674 451 ft 2 kts 327°
2026-04-26 18:11 54.37888 18.46657 452 ft 3 kts 326°
2026-04-26 18:11 54.37923 18.46613 453 ft 8 kts 320°
2026-04-26 18:12 54.37961 18.46519 453 ft 11 kts 294°
2026-04-26 18:12 54.37993 18.46387 453 ft 13 kts 292°
2026-04-26 18:12 54.38028 18.46238 454 ft 14 kts 292°
2026-04-26 18:12 54.38056 18.46126 452 ft 9 kts 294°
2026-04-26 18:13 54.38105 18.46056 453 ft 10 kts 356°
2026-04-26 18:13 54.38174 18.46102 453 ft 7 kts 24°
2026-04-26 18:13 54.38178 18.46109 453 ft 0 kts 49°
2026-04-26 18:13 54.38178 18.46111 452 ft 1 kts 59°
2026-04-26 18:14 54.38158 18.46240 452 ft 8 kts 117°
2026-04-26 18:14 54.38138 18.46309 453 ft 1 kts 115°
2026-04-26 18:14 54.38133 18.46346 451 ft 3 kts 81°
2026-04-26 18:14 54.38156 18.46371 452 ft 6 kts 26°
2026-04-26 18:15 54.38175 18.46384 452 ft 0 kts 20°